Newport, AR

7:19 AM CDT on August 21, 2017 (GMT -0500)
Newport

Weather History for KM19 - July, 2013

Change the Weather History Date:

Wednesday, July 10, 2013

  Actual Average (KBVX) Record (KBVX)
Temperature  
Mean Temperature 87 °F -  
Max Temperature 97 °F 95 °F 105 °F (1966)
Min Temperature 77 °F 70 °F 50 °F (1963)
Cooling Degree Days 22    
Growing Degree Days 37 (Base 50)    
Moisture  
Dew Point 72 °F    
Average Humidity 65    
Maximum Humidity 87    
Minimum Humidity 44    
Precipitation  
Precipitation 0.00 in - - ()
Sea Level Pressure  
Sea Level Pressure 29.97 in    
Wind  
Wind Speed 8 mph (South)    
Max Wind Speed 17 mph    
Max Gust Speed -    
Visibility 10 miles    
Events Rain , Thunderstorm    
Averages and records for this station are not official NWS values.
T = Trace of Precipitation, MM = Missing Value Source: NWS Daily Summary

Daily Weather History Graph

Daily Weather History Graph

Search for Another Location

Airport or City:

Trip Planner

Search our weather history database for the weather conditions in past years. The results will help you decide how hot, cold, wet, or windy it might be!

Date:

Astronomy

Jul. 10, 2013 Rise Set
Actual Time 5:57 AM CDT 8:22 PM CDT
Civil Twilight 5:27 AM CDT 8:52 PM CDT
Nautical Twilight 4:51 AM CDT 9:28 PM CDT
Astronomical Twilight 4:11 AM CDT 10:08 PM CDT
Moon 8:12 AM CDT (7/10) 9:39 PM CDT (7/10)
Length of Visible Light 15h 24m
Length of Day
14h 25m
Waxing Crescent, 5% of the Moon is Illuminated
Jul 10
Waxing Crescent
Jul 15
First Quarter
Jul 22
Full
Jul 29
Last Quarter
Aug 6
New

Hourly Weather History & Observations

Time (CDT) Temp. Heat Index Dew Point Humidity Pressure Visibility Wind Dir Wind Speed Gust Speed Precip Events Conditions
12:56 AM 81.0 °F 86.2 °F 73.9 °F 79% 30.01 in 10.0 mi SSW 8.1 mph - N/A   Clear
1:56 AM 82.9 °F 88.0 °F 72.0 °F 69% 30.00 in 10.0 mi SW 8.1 mph - N/A   Clear
2:56 AM 81.0 °F 85.6 °F 72.9 °F 76% 30.00 in 10.0 mi SSW 5.8 mph - N/A   Clear
3:56 AM 79.0 °F - 72.9 °F 81% 29.99 in 10.0 mi SSW 5.8 mph - N/A   Clear
4:56 AM 77.9 °F - 72.9 °F 84% 29.99 in 10.0 mi SSW 5.8 mph - N/A   Clear
5:56 AM 77.0 °F - 72.9 °F 87% 29.99 in 10.0 mi SSW 6.9 mph - N/A   Clear
6:56 AM 79.0 °F - 72.9 °F 81% 30.01 in 10.0 mi South 5.8 mph - N/A   Clear
7:56 AM 81.0 °F 85.6 °F 72.9 °F 76% 30.03 in 10.0 mi South 8.1 mph - N/A   Overcast
8:56 AM 83.8 °F 89.2 °F 72.0 °F 67% 30.03 in 10.0 mi SW 8.1 mph - N/A   Overcast
9:56 AM 88.9 °F 94.7 °F 70.9 °F 55% 30.01 in 10.0 mi WSW 6.9 mph - N/A   Overcast
10:56 AM 90.0 °F 95.9 °F 70.9 °F 53% 30.02 in 10.0 mi West 8.1 mph - N/A   Overcast
11:56 AM 93.9 °F 100.8 °F 70.9 °F 47% 30.02 in 10.0 mi Calm Calm - N/A   Clear
12:56 PM 93.9 °F 102.1 °F 72.0 °F 49% 29.99 in 10.0 mi SSE 9.2 mph - N/A   Partly Cloudy
1:56 PM 93.9 °F 104.0 °F 73.9 °F 52% 29.98 in 10.0 mi SE 10.4 mph - N/A   Partly Cloudy
2:56 PM 97.0 °F 105.5 °F 72.0 °F 44% 29.94 in 10.0 mi South 8.1 mph - N/A   Clear
3:56 PM 95.9 °F 104.5 °F 72.0 °F 46% 29.92 in 10.0 mi South 5.8 mph - N/A   Mostly Cloudy
4:56 PM 97.0 °F 107.0 °F 72.9 °F 46% 29.88 in 10.0 mi SE 5.8 mph - N/A   Clear
5:56 PM 97.9 °F 109.1 °F 73.9 °F 46% 29.88 in 10.0 mi SSE 9.2 mph - N/A   Clear
6:56 PM 92.8 °F 101.5 °F 72.9 °F 52% 29.88 in 10.0 mi South 6.9 mph - N/A Thunderstorm Thunderstorm
7:56 PM 81.9 °F 85.6 °F 70.0 °F 67% 29.91 in 10.0 mi South 13.8 mph - N/A Thunderstorm Scattered Clouds
8:09 PM 82.4 °F 86.3 °F 69.8 °F 66% 29.93 in 10.0 mi SSW 12.7 mph - N/A Thunderstorm Partly Cloudy
8:56 PM 79.9 °F - 70.9 °F 74% 29.94 in 10.0 mi South 5.8 mph - N/A   Partly Cloudy
9:56 PM 79.9 °F - 72.0 °F 77% 29.96 in 10.0 mi ESE 9.2 mph - N/A Thunderstorm Mostly Cloudy
10:13 PM 80.6 °F 84.6 °F 71.6 °F 74% 29.97 in 10.0 mi SE 8.1 mph - N/A   Mostly Cloudy
10:20 PM 80.6 °F 84.6 °F 71.6 °F 74% 29.97 in 10.0 mi SE 10.4 mph - N/A Thunderstorm Mostly Cloudy
10:42 PM 80.6 °F 83.9 °F 69.8 °F 70% 29.97 in 10.0 mi SSE 17.3 mph - 0.00 in Rain Light Rain
10:56 PM 79.9 °F - 68.0 °F 67% 29.96 in 10.0 mi South 10.4 mph - 0.00 in   Scattered Clouds
11:56 PM 81.0 °F 84.1 °F 68.9 °F 67% 29.94 in 10.0 mi WSW 8.1 mph - 0.00 in   Clear